When you browse on this site, cookies collect data to enhance your experience and personalize the content and advertising you see.
Visit our Privacy Policy to learn more. By continuing to use the site, you agree to this use of cookies and data.

Hourly Weather Nuenen

Today, 27 September, Sunday

Time Temperature Precipitation Wind Pressure Humidity
00:00 +11°C° 0 mm 8 mps 746 mmHg 92%
01:00 +12°C° 1.4 mm 8 mps 745 mmHg 92%
02:00 +13°C° 1.4 mm 8 mps 744 mmHg 92%
03:00 +13°C° 1.4 mm 8 mps 744 mmHg 92%
04:00 +14°C° 0.2 mm 7 mps 744 mmHg 92%
05:00 +12°C° 0.2 mm 7 mps 745 mmHg 91%
06:00 +11°C° 0.2 mm 6 mps 746 mmHg 91%
07:00 +13°C° 0 mm 6 mps 746 mmHg 87%
08:00 +13°C° 0 mm 5 mps 747 mmHg 84%
09:00 +13°C° 0 mm 4 mps 748 mmHg 80%
10:00 +14°C° 0 mm 4 mps 749 mmHg 76%
11:00 +15°C° 0 mm 4 mps 750 mmHg 71%
12:00 +17°C° 0 mm 3 mps 750 mmHg 66%
13:00 +17°C° 0 mm 3 mps 751 mmHg 66%
14:00 +17°C° 0 mm 3 mps 751 mmHg 65%
15:00 +17°C° 0 mm 3 mps 752 mmHg 65%
16:00 +16°C° 0 mm 2 mps 752 mmHg 68%
17:00 +15°C° 0 mm 2 mps 752 mmHg 71%
18:00 +14°C° 0 mm 2 mps 753 mmHg 73%
19:00 +14°C° 0 mm 1 mps 753 mmHg 74%
20:00 +14°C° 0 mm 1 mps 753 mmHg 75%
21:00 +13°C° 0 mm 0 mps 754 mmHg 77%
22:00 +14°C° 0.1 mm 1 mps 754 mmHg 78%
23:00 +14°C° 0.1 mm 1 mps 754 mmHg 79%

Tomorrow, 28 September, Monday

Time Temperature Precipitation Wind Pressure Humidity
00:00 +13°C° 0.1 mm 2 mps 754 mmHg 80%
01:00 +13°C° 0.2 mm 2 mps 753 mmHg 83%
02:00 +12°C° 0.2 mm 3 mps 753 mmHg 86%
03:00 +12°C° 0.2 mm 3 mps 753 mmHg 89%
04:00 +12°C° 0.5 mm 3 mps 753 mmHg 91%
05:00 +12°C° 0.5 mm 3 mps 753 mmHg 93%
06:00 +12°C° 0.5 mm 3 mps 753 mmHg 95%
07:00 +12°C° 0.4 mm 3 mps 753 mmHg 95%
08:00 +12°C° 0.4 mm 3 mps 753 mmHg 95%
09:00 +12°C° 0.4 mm 4 mps 753 mmHg 95%
10:00 +12°C° 0.2 mm 3 mps 753 mmHg 94%
11:00 +13°C° 0.2 mm 3 mps 753 mmHg 93%
12:00 +13°C° 0.2 mm 3 mps 753 mmHg 92%
13:00 +13°C° 0.2 mm 3 mps 754 mmHg 92%
14:00 +13°C° 0.2 mm 3 mps 754 mmHg 93%
15:00 +12°C° 0.2 mm 3 mps 754 mmHg 93%
16:00 +12°C° 0.4 mm 3 mps 754 mmHg 94%
17:00 +12°C° 0.4 mm 3 mps 755 mmHg 95%
18:00 +12°C° 0.4 mm 3 mps 755 mmHg 95%
19:00 +12°C° 0.4 mm 3 mps 755 mmHg 96%
20:00 +13°C° 0.4 mm 2 mps 756 mmHg 96%
21:00 +13°C° 0.4 mm 2 mps 756 mmHg 96%
22:00 +14°C° 0.1 mm 2 mps 756 mmHg 97%
23:00 +14°C° 0.1 mm 2 mps 757 mmHg 97%

Day after tomorrow, 29 September, Tuesday

Time Temperature Precipitation Wind Pressure Humidity
00:00 +14°C° 0.1 mm 2 mps 757 mmHg 97%
01:00 +14°C° 0.3 mm 2 mps 757 mmHg 97%
02:00 +15°C° 0.3 mm 2 mps 757 mmHg 97%
03:00 +15°C° 0.3 mm 2 mps 757 mmHg 98%
04:00 +15°C° 0.3 mm 2 mps 757 mmHg 97%
05:00 +15°C° 0.3 mm 2 mps 758 mmHg 96%
06:00 +14°C° 0.3 mm 3 mps 758 mmHg 96%
07:00 +14°C° 0.2 mm 3 mps 758 mmHg 92%
08:00 +14°C° 0.2 mm 3 mps 758 mmHg 89%
09:00 +14°C° 0.2 mm 3 mps 759 mmHg 86%
10:00 +17°C° 0 mm 3 mps 759 mmHg 79%
11:00 +18°C° 0 mm 3 mps 759 mmHg 71%
12:00 +19°C° 0 mm 3 mps 759 mmHg 64%
13:00 +19°C° 0 mm 3 mps 759 mmHg 64%
14:00 +19°C° 0 mm 3 mps 759 mmHg 65%
15:00 +19°C° 0 mm 2 mps 759 mmHg 65%
16:00 +18°C° 0 mm 2 mps 759 mmHg 71%
17:00 +18°C° 0 mm 1 mps 759 mmHg 76%
18:00 +16°C° 0 mm 1 mps 759 mmHg 81%
19:00 +15°C° 0.2 mm 1 mps 759 mmHg 84%
20:00 +15°C° 0.2 mm 2 mps 759 mmHg 86%
21:00 +15°C° 0.2 mm 2 mps 760 mmHg 89%
22:00 +14°C° 0.1 mm 3 mps 759 mmHg 91%
23:00 +14°C° 0.1 mm 3 mps 759 mmHg 93%

30 September, Wednesday

Time Temperature Precipitation Wind Pressure Humidity
00:00 +14°C° 0.1 mm 3 mps 759 mmHg 94%
01:00 +13°C° 0 mm 3 mps 759 mmHg 95%
02:00 +13°C° 0 mm 3 mps 759 mmHg 95%
03:00 +13°C° 0 mm 2 mps 758 mmHg 95%
04:00 +13°C° 0 mm 2 mps 758 mmHg 95%
05:00 +13°C° 0 mm 2 mps 758 mmHg 95%
06:00 +13°C° 0 mm 2 mps 758 mmHg 95%
07:00 +14°C° 0 mm 2 mps 758 mmHg 92%
08:00 +14°C° 0 mm 3 mps 758 mmHg 89%
09:00 +16°C° 0 mm 3 mps 758 mmHg 86%
10:00 +16°C° 0.2 mm 3 mps 758 mmHg 85%
11:00 +17°C° 0.2 mm 3 mps 758 mmHg 85%
12:00 +17°C° 0.2 mm 4 mps 757 mmHg 84%
13:00 +17°C° 0.1 mm 4 mps 757 mmHg 84%
14:00 +17°C° 0.1 mm 4 mps 756 mmHg 84%
15:00 +18°C° 0.1 mm 4 mps 756 mmHg 84%
16:00 +17°C° 0 mm 4 mps 755 mmHg 86%
17:00 +15°C° 0 mm 4 mps 755 mmHg 88%
18:00 +16°C° 0 mm 3 mps 755 mmHg 91%
19:00 +15°C° 0.1 mm 4 mps 755 mmHg 90%
20:00 +15°C° 0.1 mm 4 mps 754 mmHg 88%
21:00 +15°C° 0.1 mm 4 mps 754 mmHg 87%
22:00 +15°C° 0 mm 5 mps 753 mmHg 86%
23:00 +15°C° 0 mm 5 mps 752 mmHg 86%

1 October, Thursday

Time Temperature Precipitation Wind Pressure Humidity
00:00 +15°C° 0 mm 5 mps 752 mmHg 85%
01:00 +15°C° 0 mm 5 mps 751 mmHg 84%
02:00 +14°C° 0 mm 5 mps 750 mmHg 83%
03:00 +14°C° 0 mm 5 mps 749 mmHg 81%
04:00 +14°C° 0.2 mm 5 mps 748 mmHg 83%
05:00 +14°C° 0.2 mm 5 mps 748 mmHg 84%
06:00 +13°C° 0.2 mm 5 mps 747 mmHg 85%
07:00 +13°C° 0.7 mm 6 mps 746 mmHg 85%
08:00 +13°C° 0.7 mm 6 mps 745 mmHg 86%
09:00 +12°C° 0.7 mm 7 mps 744 mmHg 86%
10:00 +14°C° 0.8 mm 7 mps 743 mmHg 86%
11:00 +14°C° 0.8 mm 6 mps 743 mmHg 86%
12:00 +14°C° 0.8 mm 6 mps 742 mmHg 85%
13:00 +15°C° 0.3 mm 6 mps 742 mmHg 81%
14:00 +15°C° 0.3 mm 6 mps 742 mmHg 77%
15:00 +16°C° 0.3 mm 6 mps 742 mmHg 73%
16:00 +14°C° 1.5 mm 7 mps 743 mmHg 78%
17:00 +12°C° 1.5 mm 7 mps 744 mmHg 83%
18:00 +10°C° 1.5 mm 8 mps 745 mmHg 88%
19:00 +9°C° 0.1 mm 7 mps 745 mmHg 85%
20:00 +9°C° 0.1 mm 6 mps 746 mmHg 82%
21:00 +8°C° 0.1 mm 6 mps 746 mmHg 79%
22:00 +8°C° 0 mm 5 mps 746 mmHg 80%
23:00 +7°C° 0 mm 5 mps 746 mmHg 81%

2 October, Friday

Time Temperature Precipitation Wind Pressure Humidity
00:00 +7°C° 0 mm 4 mps 746 mmHg 83%
01:00 +7°C° 0 mm 4 mps 745 mmHg 83%
02:00 +7°C° 0 mm 5 mps 745 mmHg 84%
03:00 +7°C° 0 mm 5 mps 744 mmHg 85%
04:00 +8°C° 0.4 mm 6 mps 743 mmHg 86%
05:00 +8°C° 0.4 mm 6 mps 743 mmHg 87%
06:00 +8°C° 0.4 mm 7 mps 743 mmHg 88%
07:00 +9°C° 0.3 mm 6 mps 743 mmHg 87%
08:00 +10°C° 0.3 mm 6 mps 743 mmHg 86%
09:00 +10°C° 0.3 mm 5 mps 742 mmHg 85%
10:00 +12°C° 0.2 mm 5 mps 743 mmHg 79%
11:00 +13°C° 0.2 mm 5 mps 743 mmHg 73%
12:00 +14°C° 0.2 mm 5 mps 743 mmHg 67%
13:00 +14°C° 0 mm 5 mps 742 mmHg 66%
14:00 +14°C° 0 mm 4 mps 742 mmHg 64%
15:00 +14°C° 0 mm 4 mps 741 mmHg 62%
16:00 +13°C° 0.5 mm 4 mps 741 mmHg 70%
17:00 +12°C° 0.5 mm 4 mps 740 mmHg 78%
18:00 +10°C° 0.5 mm 5 mps 740 mmHg 86%
19:00 +10°C° 1.3 mm 5 mps 739 mmHg 88%
20:00 +10°C° 1.3 mm 6 mps 738 mmHg 89%
21:00 +11°C° 1.3 mm 7 mps 738 mmHg 91%
22:00 +11°C° 0.7 mm 8 mps 737 mmHg 90%
23:00 +12°C° 0.7 mm 8 mps 736 mmHg 89%
Show more